Time,TemperatureF,DewpointF,PressureIn,WindDirection,WindDirectionDegrees,WindSpeedMPH,WindSpeedGustMPH,Humidity,HourlyPrecipIn,Conditions,Clouds,dailyrainin,SolarRadiationWatts/m^2,SoftwareType,DateUTC
2013-08-04 00:04:00,66.0,45.8,30.12,East,90,1.1,2.2,48,0.00,SCT,,0.00,0.0,WeatherDisplay:10.37,2013-08-04 05:04:00,
2013-08-04 00:10:00,66.0,45.8,30.12,East,90,1.4,2.3,48,0.00,SCT,,0.00,0.0,WeatherDisplay:10.37,2013-08-04 05:10:00,
2013-08-04 00:15:00,66.0,46.3,30.12,East,88,1.0,2.0,49,0.00,SCT,SCT,0.00,0.0,WeatherDisplay:10.37,2013-08-04 05:15:00,
2013-08-04 00:20:00,66.0,46.8,30.12,NNE,22,0.0,2.3,50,0.00,SCT,,0.00,0.0,WeatherDisplay:10.37,2013-08-04 05:20:00,
2013-08-04 00:25:00,65.8,46.7,30.12,NNW,338,0.9,1.4,50,0.00,SCT,,0.00,0.0,WeatherDisplay:10.37,2013-08-04 05:25:00,
2013-08-04 00:30:00,65.8,46.7,30.12,East,90,0.9,1.4,50,0.00,SCT,,0.00,0.0,WeatherDisplay:10.37,2013-08-04 05:30:00,
2013-08-04 00:35:00,65.8,46.7,30.12,ENE,68,0.0,1.1,50,0.00,SCT,,0.00,0.0,WeatherDisplay:10.37,2013-08-04 05:35:00,
2013-08-04 00:40:00,65.8,46.7,30.12,ENE,68,0.0,2.3,50,0.00,SCT,,0.00,0.0,WeatherDisplay:10.37,2013-08-04 05:40:00,
2013-08-04 00:45:00,65.8,46.7,30.12,NNE,22,1.4,2.4,50,0.00,SCT,,0.00,0.0,WeatherDisplay:10.37,2013-08-04 05:45:00,
2013-08-04 00:51:00,65.8,46.7,30.12,ENE,68,0.0,2.3,50,0.00,SCT,,0.00,0.0,WeatherDisplay:10.37,2013-08-04 05:51:00,
2013-08-04 00:56:00,65.8,47.2,30.12,North,0,1.4,2.3,51,0.00,SCT,,0.00,0.0,WeatherDisplay:10.37,2013-08-04 05:56:00,
2013-08-04 01:01:00,65.7,47.0,30.09,East,90,1.1,2.4,51,0.00,SCT,,0.00,0.0,WeatherDisplay:10.37,2013-08-04 06:01:00,
2013-08-04 01:06:00,65.7,47.5,30.09,NNE,22,1.6,2.3,52,0.00,SCT,,0.00,0.0,WeatherDisplay:10.37,2013-08-04 06:06:00,
2013-08-04 01:12:00,65.7,48.1,30.09,East,90,2.2,2.4,53,0.00,SCT,,0.00,0.0,WeatherDisplay:10.37,2013-08-04 06:12:00,
2013-08-04 01:16:00,65.5,47.4,30.09,East,90,2.0,3.5,52,0.00,SCT,,0.00,0.0,WeatherDisplay:10.37,2013-08-04 06:16:00,
2013-08-04 01:22:00,65.5,47.9,30.09,East,90,2.2,3.6,53,0.00,SCT,,0.00,0.0,WeatherDisplay:10.37,2013-08-04 06:22:00,
2013-08-04 01:27:00,65.5,47.9,30.09,ENE,68,2.4,2.9,53,0.00,SCT,,0.00,0.0,WeatherDisplay:10.37,2013-08-04 06:27:00,
2013-08-04 01:32:00,65.3,47.7,30.09,ESE,112,2.6,4.6,53,0.00,SCT,,0.00,0.0,WeatherDisplay:10.37,2013-08-04 06:32:00,
2013-08-04 01:37:00,65.3,47.7,30.09,East,90,2.6,4.0,53,0.00,SCT,,0.00,0.0,WeatherDisplay:10.37,2013-08-04 06:37:00,
2013-08-04 01:42:00,65.1,48.1,30.09,ENE,68,2.4,4.0,54,0.00,SCT,,0.00,0.0,WeatherDisplay:10.37,2013-08-04 06:42:00,
2013-08-04 01:47:00,65.1,48.1,30.06,ENE,68,2.4,2.4,54,0.00,SCT,,0.00,0.0,WeatherDisplay:10.37,2013-08-04 06:47:00,
2013-08-04 01:52:00,65.1,48.1,30.06,East,90,3.3,4.7,54,0.00,SCT,,0.00,0.0,WeatherDisplay:10.37,2013-08-04 06:52:00,
2013-08-04 01:58:00,64.9,47.9,30.06,North,0,2.0,2.3,54,0.00,SCT,,0.00,0.0,WeatherDisplay:10.37,2013-08-04 06:58:00,
2013-08-04 02:03:00,64.9,47.9,30.06,ESE,112,1.6,5.8,54,0.00,SCT,,0.00,0.0,WeatherDisplay:10.37,2013-08-04 07:03:00,
2013-08-04 02:08:00,64.9,47.9,30.06,ESE,112,2.0,3.6,54,0.00,SCT,,0.00,0.0,WeatherDisplay:10.37,2013-08-04 07:08:00,
2013-08-04 02:13:00,64.8,47.7,30.06,East,90,2.9,3.5,54,0.00,SCT,,0.00,0.0,WeatherDisplay:10.37,2013-08-04 07:13:00,
2013-08-04 02:18:00,64.8,47.7,30.06,East,90,2.4,3.5,54,0.00,SCT,,0.00,0.0,WeatherDisplay:10.37,2013-08-04 07:18:00,
2013-08-04 02:23:00,64.8,47.7,30.06,ENE,68,2.6,4.6,54,0.00,SCT,,0.00,0.0,WeatherDisplay:10.37,2013-08-04 07:23:00,
2013-08-04 02:28:00,64.6,47.6,30.03,ENE,68,2.0,3.3,54,0.00,SCT,,0.00,0.0,WeatherDisplay:10.37,2013-08-04 07:28:00,
2013-08-04 02:33:00,64.6,47.6,30.03,East,90,2.2,2.4,54,0.00,SCT,,0.00,0.0,WeatherDisplay:10.37,2013-08-04 07:33:00,
2013-08-04 02:38:00,64.6,47.6,30.03,East,90,2.0,3.5,54,0.00,SCT,,0.00,0.0,WeatherDisplay:10.37,2013-08-04 07:38:00,
2013-08-04 02:43:00,64.4,46.9,30.06,East,90,2.4,3.5,53,0.00,SCT,,0.00,0.0,WeatherDisplay:10.37,2013-08-04 07:43:00,
2013-08-04 02:49:00,64.4,46.9,30.06,ENE,68,2.2,2.9,53,0.00,SCT,,0.00,0.0,WeatherDisplay:10.37,2013-08-04 07:49:00,
2013-08-04 02:53:00,64.2,47.2,30.06,ENE,68,1.6,2.3,54,0.00,SCT,,0.00,0.0,WeatherDisplay:10.37,2013-08-04 07:53:00,
2013-08-04 02:59:00,64.2,47.2,30.06,SSE,158,2.0,2.3,54,0.00,SCT,,0.00,0.0,WeatherDisplay:10.37,2013-08-04 07:59:00,
2013-08-04 03:04:00,64.0,47.1,30.06,ESE,112,1.1,1.4,54,0.00,SCT,,0.00,0.0,WeatherDisplay:10.37,2013-08-04 08:04:00,
2013-08-04 03:09:00,63.9,46.9,30.06,ESE,112,1.1,2.3,54,0.00,SCT,,0.00,0.0,WeatherDisplay:10.37,2013-08-04 08:09:00,
2013-08-04 03:14:00,63.9,46.9,30.09,ESE,112,2.4,2.4,54,0.00,SCT,,0.00,0.0,WeatherDisplay:10.37,2013-08-04 08:14:00,
2013-08-04 03:19:00,63.7,47.2,30.09,ESE,112,2.0,2.4,55,0.00,SCT,,0.00,0.0,WeatherDisplay:10.37,2013-08-04 08:19:00,
2013-08-04 03:25:00,63.7,47.2,30.09,ESE,112,2.4,4.6,55,0.00,SCT,,0.00,0.0,WeatherDisplay:10.37,2013-08-04 08:25:00,
2013-08-04 03:30:00,63.5,47.0,30.09,East,90,2.0,2.4,55,0.00,SCT,,0.00,0.0,WeatherDisplay:10.37,2013-08-04 08:30:00,
2013-08-04 03:35:00,63.5,47.0,30.09,ESE,112,1.4,2.3,55,0.00,SCT,,0.00,0.0,WeatherDisplay:10.37,2013-08-04 08:35:00,
2013-08-04 03:40:00,63.5,47.0,30.09,ENE,68,2.9,4.6,55,0.00,SCT,,0.00,0.0,WeatherDisplay:10.37,2013-08-04 08:40:00,
2013-08-04 03:45:00,63.5,47.0,30.09,ESE,112,2.6,3.5,55,0.00,SCT,,0.00,0.0,WeatherDisplay:10.37,2013-08-04 08:45:00,
2013-08-04 03:50:00,63.5,47.0,30.09,ENE,68,2.4,4.0,55,0.00,SCT,,0.00,0.0,WeatherDisplay:10.37,2013-08-04 08:50:00,
2013-08-04 03:56:00,63.7,47.2,30.09,East,90,4.3,4.6,55,0.00,SCT,,0.00,0.0,WeatherDisplay:10.37,2013-08-04 08:56:00,
2013-08-04 04:01:00,63.9,47.4,30.09,East,90,2.9,4.6,55,0.00,SCT,,0.00,0.0,WeatherDisplay:10.37,2013-08-04 09:01:00,
2013-08-04 04:07:00,63.9,46.9,30.09,ENE,68,2.6,4.6,54,0.00,SCT,,0.00,0.0,WeatherDisplay:10.37,2013-08-04 09:07:00,
2013-08-04 04:11:00,63.7,46.7,30.09,ESE,112,2.9,4.0,54,0.00,SCT,,0.00,0.0,WeatherDisplay:10.37,2013-08-04 09:11:00,
2013-08-04 04:17:00,63.7,47.2,30.09,ENE,68,3.3,5.8,55,0.00,SCT,,0.00,0.0,WeatherDisplay:10.37,2013-08-04 09:17:00,
2013-08-04 04:22:00,63.5,47.0,30.09,ESE,112,2.9,4.6,55,0.00,SCT,,0.00,0.0,WeatherDisplay:10.37,2013-08-04 09:22:00,
2013-08-04 04:27:00,63.5,47.0,30.09,ESE,112,2.6,3.5,55,0.00,SCT,,0.00,0.0,WeatherDisplay:10.37,2013-08-04 09:27:00,
2013-08-04 04:32:00,63.5,47.0,30.09,ESE,112,2.4,3.5,55,0.00,SCT,,0.00,0.0,WeatherDisplay:10.37,2013-08-04 09:32:00,
2013-08-04 04:37:00,63.3,46.9,30.09,East,90,2.6,3.6,55,0.00,SCT,,0.00,0.0,WeatherDisplay:10.37,2013-08-04 09:37:00,
2013-08-04 04:42:00,63.3,46.9,30.09,East,90,2.2,3.5,55,0.00,SCT,,0.00,0.0,WeatherDisplay:10.37,2013-08-04 09:42:00,
2013-08-04 04:47:00,63.1,46.7,30.09,ESE,112,2.6,4.6,55,0.00,SCT,,0.00,0.0,WeatherDisplay:10.37,2013-08-04 09:47:00,
2013-08-04 04:52:00,63.0,47.0,30.09,ESE,112,1.6,2.3,56,0.00,SCT,,0.00,0.0,WeatherDisplay:10.37,2013-08-04 09:52:00,
2013-08-04 04:57:00,62.8,46.8,30.09,East,90,1.1,2.3,56,0.00,SCT,,0.00,0.0,WeatherDisplay:10.37,2013-08-04 09:57:00,
2013-08-04 05:02:00,62.6,46.7,30.09,East,90,1.1,2.6,56,0.00,SCT,,0.00,0.0,WeatherDisplay:10.37,2013-08-04 10:02:00,
2013-08-04 05:07:00,62.4,47.0,30.09,East,90,1.6,2.4,57,0.00,SCT,,0.00,0.0,WeatherDisplay:10.37,2013-08-04 10:07:00,
2013-08-04 05:12:00,62.4,47.4,30.09,ENE,68,2.2,2.9,58,0.00,SCT,,0.00,0.0,WeatherDisplay:10.37,2013-08-04 10:12:00,
2013-08-04 05:17:00,62.4,47.4,30.09,ESE,112,1.4,3.5,58,0.00,SCT,,0.00,0.0,WeatherDisplay:10.37,2013-08-04 10:17:00,
2013-08-04 05:22:00,62.4,47.9,30.09,ENE,68,1.6,2.3,59,0.00,SCT,,0.00,0.0,WeatherDisplay:10.37,2013-08-04 10:22:00,
2013-08-04 05:27:00,62.2,47.7,30.09,East,90,2.0,2.9,59,0.00,SCT,,0.00,0.0,WeatherDisplay:10.37,2013-08-04 10:27:00,
2013-08-04 05:32:00,62.2,47.7,30.09,East,90,1.1,2.3,59,0.00,SCT,,0.00,0.0,WeatherDisplay:10.37,2013-08-04 10:32:00,
2013-08-04 05:37:00,62.2,47.7,30.09,East,90,1.6,3.5,59,0.00,SCT,,0.00,0.0,WeatherDisplay:10.37,2013-08-04 10:37:00,
2013-08-04 05:43:00,62.1,47.6,30.09,ESE,112,1.4,2.3,59,0.00,SCT,,0.00,0.0,WeatherDisplay:10.37,2013-08-04 10:43:00,
2013-08-04 05:48:00,62.1,47.6,30.09,ENE,68,1.1,2.3,59,0.00,SCT,,0.00,0.0,WeatherDisplay:10.37,2013-08-04 10:48:00,
2013-08-04 05:53:00,61.9,47.4,30.09,East,90,2.2,3.5,59,0.00,SCT,,0.00,0.0,WeatherDisplay:10.37,2013-08-04 10:53:00,
2013-08-04 05:58:00,61.9,47.8,30.09,SSE,158,0.9,1.1,60,0.00,SCT,,0.00,0.0,WeatherDisplay:10.37,2013-08-04 10:58:00,
2013-08-04 06:03:00,61.7,48.1,30.09,SSE,158,0.0,1.1,61,0.00,SCT,,0.00,0.0,WeatherDisplay:10.37,2013-08-04 11:03:00,
2013-08-04 06:08:00,61.5,48.4,30.09,NNE,22,0.0,1.1,62,0.00,SCT,,0.00,0.0,WeatherDisplay:10.37,2013-08-04 11:08:00,
2013-08-04 06:14:00,61.5,47.9,30.09,NNE,22,0.0,0.0,61,0.00,SCT,,0.00,0.0,WeatherDisplay:10.37,2013-08-04 11:14:00,
2013-08-04 06:19:00,61.3,47.3,30.09,East,90,0.9,1.1,60,0.00,SCT,,0.00,0.0,WeatherDisplay:10.37,2013-08-04 11:19:00,
2013-08-04 06:25:00,61.3,47.3,30.09,East,90,1.6,2.3,60,0.00,CLR,SCT,0.00,0.0,WeatherDisplay:10.37,2013-08-04 11:25:00,
2013-08-04 06:30:00,61.3,47.8,30.09,East,90,2.4,2.9,61,0.00,CLR,SCT,0.00,0.0,WeatherDisplay:10.37,2013-08-04 11:30:00,
2013-08-04 06:35:00,61.3,48.2,30.09,East,90,1.4,2.3,62,0.00,CLR,SCT,0.00,0.0,WeatherDisplay:10.37,2013-08-04 11:35:00,
2013-08-04 06:40:00,61.3,48.2,30.09,ENE,68,0.9,1.1,62,0.00,CLR,SCT,0.00,0.0,WeatherDisplay:10.37,2013-08-04 11:40:00,
2013-08-04 06:45:00,61.3,48.6,30.09,ESE,112,0.9,2.0,63,0.00,CLR,SCT,0.00,0.0,WeatherDisplay:10.37,2013-08-04 11:45:00,
2013-08-04 06:50:00,61.3,48.6,30.09,ESE,112,1.6,2.3,63,0.00,CLR,SCT,0.00,0.0,WeatherDisplay:10.37,2013-08-04 11:50:00,
2013-08-04 06:56:00,61.3,49.1,30.09,East,90,2.2,3.5,64,0.00,CLR,SCT,0.00,0.0,WeatherDisplay:10.37,2013-08-04 11:56:00,
2013-08-04 07:01:00,61.7,49.4,30.09,ESE,112,2.2,3.5,64,0.00,CLR,SCT,0.00,0.0,WeatherDisplay:10.37,2013-08-04 12:01:00,
2013-08-04 07:06:00,61.7,49.8,30.09,ENE,68,2.0,2.3,65,0.00,CLR,SCT,0.00,0.0,WeatherDisplay:10.37,2013-08-04 12:06:00,
2013-08-04 07:12:00,61.9,49.6,30.09,East,90,2.6,3.5,64,0.00,CLR,SCT,0.00,0.0,WeatherDisplay:10.37,2013-08-04 12:12:00,
2013-08-04 07:17:00,62.2,49.9,30.09,ENE,68,2.0,3.5,64,0.00,CLR,SCT,0.00,0.0,WeatherDisplay:10.37,2013-08-04 12:17:00,
2013-08-04 07:21:00,62.6,50.2,30.09,ESE,112,2.2,3.5,64,0.00,CLR,SCT,0.00,0.0,WeatherDisplay:10.37,2013-08-04 12:21:00,
2013-08-04 07:27:00,62.8,50.4,30.09,ESE,112,3.1,3.6,64,0.00,CLR,SCT,0.00,0.0,WeatherDisplay:10.37,2013-08-04 12:27:00,
2013-08-04 07:32:00,63.1,50.3,30.09,ESE,112,2.4,3.8,63,0.00,CLR,SCT,0.00,0.0,WeatherDisplay:10.37,2013-08-04 12:32:00,
2013-08-04 07:37:00,63.7,50.4,30.09,East,90,2.4,3.1,62,0.00,CLR,SCT,0.00,0.0,WeatherDisplay:10.37,2013-08-04 12:37:00,
2013-08-04 07:42:00,64.0,50.3,30.09,ESE,112,2.6,5.8,61,0.00,CLR,SCT,0.00,0.0,WeatherDisplay:10.37,2013-08-04 12:42:00,
2013-08-04 07:47:00,64.4,50.2,30.09,ESE,112,2.4,4.6,60,0.00,CLR,SCT,0.00,0.0,WeatherDisplay:10.37,2013-08-04 12:47:00,
2013-08-04 07:52:00,64.9,49.8,30.09,ESE,112,2.9,6.4,58,0.00,CLR,SCT,0.00,0.0,WeatherDisplay:10.37,2013-08-04 12:52:00,
2013-08-04 07:57:00,65.5,49.8,30.09,ESE,112,3.8,6.9,57,0.00,CLR,SCT,0.00,0.0,WeatherDisplay:10.37,2013-08-04 12:57:00,
2013-08-04 08:02:00,65.7,48.6,30.09,East,90,4.5,5.8,54,0.00,CLR,SCT,0.00,0.0,WeatherDisplay:10.37,2013-08-04 13:02:00,
2013-08-04 08:07:00,66.0,48.9,30.09,East,90,3.1,5.8,54,0.00,FEW,SCT,0.00,0.0,WeatherDisplay:10.37,2013-08-04 13:07:00,
2013-08-04 08:12:00,66.4,48.2,30.09,ESE,112,3.3,4.9,52,0.00,FEW,SCT,0.00,0.0,WeatherDisplay:10.37,2013-08-04 13:12:00,
2013-08-04 08:14:00,66.6,47.9,30.09,East,94,5.0,9.0,51,0.00,FEW,SCT,0.00,39.0,WeatherDisplay:10.37,2013-08-04 13:14:00,
2013-08-04 08:20:00,66.9,48.2,30.09,ENE,68,3.8,4.6,51,0.00,SCT,,0.00,0.0,WeatherDisplay:10.37,2013-08-04 13:20:00,
2013-08-04 08:25:00,67.3,48.0,30.09,ENE,68,4.5,5.8,50,0.00,SCT,,0.00,0.0,WeatherDisplay:10.37,2013-08-04 13:25:00,
2013-08-04 08:30:00,67.6,48.3,30.09,ENE,68,2.9,4.6,50,0.00,SCT,,0.00,0.0,WeatherDisplay:10.37,2013-08-04 13:30:00,
2013-08-04 08:35:00,67.8,46.8,30.09,NE,45,3.8,5.8,47,0.00,SCT,,0.00,0.0,WeatherDisplay:10.37,2013-08-04 13:35:00,
2013-08-04 08:40:00,68.0,47.0,30.09,ESE,112,3.1,4.6,47,0.00,SCT,,0.00,0.0,WeatherDisplay:10.37,2013-08-04 13:40:00,
2013-08-04 08:45:00,68.5,48.1,30.09,ENE,68,3.1,5.8,48,0.00,BKN,SCT,0.00,0.0,WeatherDisplay:10.37,2013-08-04 13:45:00,
2013-08-04 08:50:00,68.9,48.4,30.09,East,90,3.3,5.4,48,0.00,OVC,SCT,0.00,0.0,WeatherDisplay:10.37,2013-08-04 13:50:00,
2013-08-04 08:56:00,69.1,47.4,30.09,ESE,112,3.3,3.5,46,0.00,OVC,SCT,0.00,0.0,WeatherDisplay:10.37,2013-08-04 13:56:00,
2013-08-04 09:01:00,69.3,47.0,30.09,East,90,3.8,6.0,45,0.00,OVC,SCT,0.00,0.0,WeatherDisplay:10.37,2013-08-04 14:01:00,
2013-08-04 09:07:00,69.4,47.2,30.09,ESE,112,4.5,7.1,45,0.00,OVC,SCT,0.00,0.0,WeatherDisplay:10.37,2013-08-04 14:07:00,
2013-08-04 09:12:00,69.6,47.3,30.09,ENE,68,2.9,4.9,45,0.00,OVC,SCT,0.00,0.0,WeatherDisplay:10.37,2013-08-04 14:12:00,
2013-08-04 09:17:00,70.0,47.1,30.09,ESE,112,4.3,6.9,44,0.00,OVC,SCT,0.00,100.0,WeatherDisplay:10.37,2013-08-04 14:17:00,
2013-08-04 09:22:00,70.3,47.4,30.09,East,90,4.0,8.1,44,0.00,OVC,SCT,0.00,100.0,WeatherDisplay:10.37,2013-08-04 14:22:00,
2013-08-04 09:27:00,70.5,46.9,30.09,SE,135,5.6,7.4,43,0.00,OVC,SCT,0.00,100.0,WeatherDisplay:10.37,2013-08-04 14:27:00,
2013-08-04 09:32:00,70.3,46.8,30.09,ESE,112,4.3,7.8,43,0.00,OVC,SCT,0.00,0.0,WeatherDisplay:10.37,2013-08-04 14:32:00,
2013-08-04 09:37:00,70.3,47.4,30.09,ESE,112,4.3,4.6,44,0.00,OVC,SCT,0.00,0.0,WeatherDisplay:10.37,2013-08-04 14:37:00,
2013-08-04 09:42:00,70.3,47.4,30.09,East,90,2.0,8.1,44,0.00,OVC,SCT,0.00,0.0,WeatherDisplay:10.37,2013-08-04 14:42:00,
2013-08-04 09:47:00,70.3,47.4,30.09,SE,135,3.6,5.8,44,0.00,OVC,SCT,0.00,0.0,WeatherDisplay:10.37,2013-08-04 14:47:00,
2013-08-04 09:53:00,70.2,47.2,30.09,ENE,68,3.1,4.6,44,0.00,OVC,SCT,0.00,100.0,WeatherDisplay:10.37,2013-08-04 14:53:00,
2013-08-04 09:58:00,70.5,47.5,30.09,ESE,112,4.9,6.4,44,0.00,OVC,SCT,0.00,100.0,WeatherDisplay:10.37,2013-08-04 14:58:00,
2013-08-04 10:03:00,70.7,47.1,30.09,SSE,158,4.5,6.9,43,0.00,OVC,SCT,0.00,100.0,WeatherDisplay:10.37,2013-08-04 15:03:00,
2013-08-04 10:08:00,71.4,48.4,30.09,ESE,112,2.4,5.8,44,0.00,OVC,SCT,0.00,100.0,WeatherDisplay:10.37,2013-08-04 15:08:00,
2013-08-04 10:13:00,71.4,47.7,30.09,ESE,112,3.6,6.9,43,0.00,OVC,SCT,0.00,100.0,WeatherDisplay:10.37,2013-08-04 15:13:00,
2013-08-04 10:18:00,71.8,47.4,30.09,ESE,112,5.4,9.4,42,0.00,OVC,SCT,0.00,100.0,WeatherDisplay:10.37,2013-08-04 15:18:00,
2013-08-04 10:23:00,72.1,47.8,30.09,NE,45,6.7,8.1,42,0.00,OVC,SCT,0.00,200.0,WeatherDisplay:10.37,2013-08-04 15:23:00,
2013-08-04 10:28:00,72.5,48.1,30.09,South,180,4.0,5.8,42,0.00,OVC,SCT,0.00,200.0,WeatherDisplay:10.37,2013-08-04 15:28:00,
2013-08-04 10:33:00,73.0,48.6,30.09,SE,135,4.3,6.2,42,0.00,OVC,SCT,0.00,200.0,WeatherDisplay:10.37,2013-08-04 15:33:00,
2013-08-04 10:39:00,73.2,48.7,30.09,SSE,158,4.5,5.9,42,0.00,OVC,SCT,0.00,100.0,WeatherDisplay:10.37,2013-08-04 15:39:00,
2013-08-04 10:44:00,73.0,46.6,30.09,ESE,112,6.0,9.2,39,0.00,OVC,SCT,0.00,200.0,WeatherDisplay:10.37,2013-08-04 15:44:00,
2013-08-04 10:49:00,73.0,46.6,30.09,SSE,158,5.4,8.1,39,0.00,OVC,SCT,0.00,100.0,WeatherDisplay:10.37,2013-08-04 15:49:00,
2013-08-04 10:54:00,73.0,47.9,30.09,WSW,248,5.4,6.9,41,0.00,OVC,SCT,0.00,100.0,WeatherDisplay:10.37,2013-08-04 15:54:00,
2013-08-04 10:59:00,73.0,47.9,30.06,ESE,112,5.9,6.9,41,0.00,OVC,SCT,0.00,200.0,WeatherDisplay:10.37,2013-08-04 15:59:00,
2013-08-04 11:04:00,73.4,46.2,30.06,ESE,112,4.7,10.2,38,0.00,OVC,SCT,0.00,100.0,WeatherDisplay:10.37,2013-08-04 16:04:00,
2013-08-04 11:09:00,73.0,45.9,30.06,ESE,112,7.1,8.1,38,0.00,OVC,SCT,0.00,100.0,WeatherDisplay:10.37,2013-08-04 16:09:00,
2013-08-04 11:14:00,72.9,46.4,30.06,East,90,6.2,8.1,39,0.00,OVC,SCT,0.00,100.0,WeatherDisplay:10.37,2013-08-04 16:14:00,
2013-08-04 11:19:00,72.9,47.1,30.06,SE,135,6.7,12.7,40,0.00,OVC,SCT,0.00,100.0,WeatherDisplay:10.37,2013-08-04 16:19:00,
2013-08-04 11:24:00,72.7,47.0,30.06,ESE,112,6.2,9.2,40,0.00,OVC,SCT,0.00,300.0,WeatherDisplay:10.37,2013-08-04 16:24:00,
2013-08-04 11:29:00,73.4,49.5,30.06,ENE,68,4.5,8.1,43,0.00,OVC,SCT,0.00,200.0,WeatherDisplay:10.37,2013-08-04 16:29:00,
2013-08-04 11:35:00,73.9,49.4,30.06,ESE,112,4.0,6.4,42,0.00,OVC,SCT,0.00,200.0,WeatherDisplay:10.37,2013-08-04 16:35:00,
2013-08-04 11:40:00,74.3,48.4,30.06,East,90,6.7,9.2,40,0.00,OVC,SCT,0.00,100.0,WeatherDisplay:10.37,2013-08-04 16:40:00,
2013-08-04 11:45:00,73.9,46.7,30.06,SE,135,5.4,9.2,38,0.00,OVC,SCT,0.00,100.0,WeatherDisplay:10.37,2013-08-04 16:45:00,
2013-08-04 11:50:00,73.8,47.3,30.06,ESE,112,4.9,9.2,39,0.00,OVC,SCT,0.00,200.0,WeatherDisplay:10.37,2013-08-04 16:50:00,
2013-08-04 11:55:00,74.3,49.7,30.06,ENE,68,4.5,8.1,42,0.00,OVC,SCT,0.00,200.0,WeatherDisplay:10.37,2013-08-04 16:55:00,
2013-08-04 12:00:00,74.5,47.9,30.06,ESE,112,9.0,9.2,39,0.00,OVC,SCT,0.00,200.0,WeatherDisplay:10.37,2013-08-04 17:00:00,
2013-08-04 12:05:00,74.7,48.7,30.06,ESE,112,5.9,6.9,40,0.00,OVC,SCT,0.00,100.0,WeatherDisplay:10.37,2013-08-04 17:05:00,
2013-08-04 12:10:00,75.2,48.5,30.06,ESE,112,3.8,10.4,39,0.00,OVC,SCT,0.00,200.0,WeatherDisplay:10.37,2013-08-04 17:10:00,
2013-08-04 12:15:00,75.4,48.0,30.06,SSE,158,5.4,8.1,38,0.00,OVC,SCT,0.00,100.0,WeatherDisplay:10.37,2013-08-04 17:15:00,
2013-08-04 12:21:00,75.0,47.7,30.06,East,90,5.4,8.1,38,0.00,OVC,SCT,0.00,0.0,WeatherDisplay:10.37,2013-08-04 17:21:00,
2013-08-04 12:25:00,74.7,47.4,30.06,ENE,68,4.0,9.7,38,0.00,OVC,SCT,0.00,0.0,WeatherDisplay:10.37,2013-08-04 17:25:00,
2013-08-04 12:31:00,73.8,45.9,30.06,ENE,68,5.6,8.1,37,0.00,OVC,SCT,0.00,0.0,WeatherDisplay:10.37,2013-08-04 17:31:00,
2013-08-04 12:36:00,73.6,47.1,30.06,ENE,68,3.6,5.8,39,0.00,OVC,SCT,0.00,0.0,WeatherDisplay:10.37,2013-08-04 17:36:00,
2013-08-04 12:41:00,73.4,46.9,30.06,SSE,158,3.3,4.6,39,0.00,OVC,SCT,0.00,0.0,WeatherDisplay:10.37,2013-08-04 17:41:00,
2013-08-04 12:47:00,73.4,47.6,30.03,SSE,158,4.3,5.8,40,0.00,OVC,SCT,0.00,100.0,WeatherDisplay:10.37,2013-08-04 17:47:00,
2013-08-04 12:52:00,73.6,48.4,30.03,East,90,3.8,5.8,41,0.00,OVC,SCT,0.00,100.0,WeatherDisplay:10.37,2013-08-04 17:52:00,
2013-08-04 12:57:00,73.8,47.9,30.03,ESE,112,4.9,6.9,40,0.00,OVC,SCT,0.00,100.0,WeatherDisplay:10.37,2013-08-04 17:57:00,
2013-08-04 13:02:00,73.9,48.7,30.06,ESE,112,3.6,4.9,41,0.00,OVC,SCT,0.00,100.0,WeatherDisplay:10.37,2013-08-04 18:02:00,
2013-08-04 13:07:00,74.1,48.9,30.06,East,90,4.3,5.4,41,0.00,OVC,SCT,0.00,100.0,WeatherDisplay:10.37,2013-08-04 18:07:00,
2013-08-04 13:12:00,74.3,49.1,30.06,ENE,68,3.6,6.9,41,0.00,OVC,SCT,0.00,100.0,WeatherDisplay:10.37,2013-08-04 18:12:00,
2013-08-04 13:17:00,74.3,49.1,30.06,WNW,292,3.3,5.4,41,0.00,OVC,SCT,0.00,100.0,WeatherDisplay:10.37,2013-08-04 18:17:00,
2013-08-04 13:18:00,74.3,48.4,30.06,ESE,112,4.3,5.8,40,0.00,OVC,SCT,0.00,100.0,WeatherDisplay:10.37,2013-08-04 18:18:00,
2013-08-04 13:23:00,74.5,49.2,30.06,ESE,112,2.9,3.5,41,0.00,OVC,SCT,0.00,100.0,WeatherDisplay:10.37,2013-08-04 18:23:00,
2013-08-04 13:29:00,74.8,49.6,30.06,ESE,112,4.3,6.9,41,0.00,OVC,SCT,0.00,100.0,WeatherDisplay:10.37,2013-08-04 18:29:00,
2013-08-04 13:34:00,75.0,50.4,30.06,NE,45,4.5,5.8,42,0.00,OVC,SCT,0.00,100.0,WeatherDisplay:10.37,2013-08-04 18:34:00,
2013-08-04 13:39:00,75.0,49.7,30.06,ESE,112,3.8,5.8,41,0.00,OVC,SCT,0.00,100.0,WeatherDisplay:10.37,2013-08-04 18:39:00,
2013-08-04 13:44:00,75.2,49.9,30.06,SSE,158,4.5,8.1,41,0.00,OVC,SCT,0.00,0.0,WeatherDisplay:10.37,2013-08-04 18:44:00,
2013-08-04 13:49:00,75.2,49.9,30.06,ESE,112,4.5,5.9,41,0.00,OVC,SCT,0.00,100.0,WeatherDisplay:10.37,2013-08-04 18:49:00,
2013-08-04 13:55:00,75.2,49.9,30.06,ESE,112,3.6,4.6,41,0.00,OVC,SCT,0.00,0.0,WeatherDisplay:10.37,2013-08-04 18:55:00,
2013-08-04 14:00:00,75.2,49.9,30.06,ESE,112,3.6,4.3,41,0.00,OVC,SCT,0.00,0.0,WeatherDisplay:10.37,2013-08-04 19:00:00,
2013-08-04 14:05:00,75.2,49.9,30.06,SSE,158,4.0,4.6,41,0.00,OVC,SCT,0.00,0.0,WeatherDisplay:10.37,2013-08-04 19:05:00,
2013-08-04 14:10:00,75.2,49.9,30.06,ENE,68,2.9,4.6,41,0.00,OVC,SCT,0.00,100.0,WeatherDisplay:10.37,2013-08-04 19:10:00,
2013-08-04 14:15:00,75.4,50.7,30.06,SSE,158,3.8,5.8,42,0.00,OVC,SCT,0.00,100.0,WeatherDisplay:10.37,2013-08-04 19:15:00,
2013-08-04 14:20:00,75.6,50.2,30.06,SSE,158,3.3,4.6,41,0.00,OVC,SCT,0.00,100.0,WeatherDisplay:10.37,2013-08-04 19:20:00,
2013-08-04 14:25:00,75.6,48.9,30.06,ESE,112,4.7,9.2,39,0.00,OVC,SCT,0.00,100.0,WeatherDisplay:10.37,2013-08-04 19:25:00,
2013-08-04 14:31:00,75.6,50.2,30.03,SSW,202,2.9,5.8,41,0.00,OVC,SCT,0.00,100.0,WeatherDisplay:10.37,2013-08-04 19:31:00,
2013-08-04 14:37:00,75.9,50.5,30.03,SSW,202,4.9,5.8,41,0.00,OVC,SCT,0.00,100.0,WeatherDisplay:10.37,2013-08-04 19:37:00,
2013-08-04 14:42:00,75.9,50.5,30.03,East,90,3.3,5.8,41,0.00,OVC,SCT,0.00,100.0,WeatherDisplay:10.37,2013-08-04 19:42:00,
2013-08-04 14:47:00,75.7,50.4,30.03,ENE,68,4.7,8.1,41,0.00,OVC,SCT,0.00,0.0,WeatherDisplay:10.37,2013-08-04 19:47:00,
2013-08-04 14:52:00,75.6,50.2,30.03,SSE,158,5.6,6.9,41,0.00,OVC,SCT,0.00,0.0,WeatherDisplay:10.37,2013-08-04 19:52:00,
2013-08-04 14:57:00,75.2,49.9,30.03,ESE,112,4.0,4.6,41,0.00,OVC,SCT,0.00,0.0,WeatherDisplay:10.37,2013-08-04 19:57:00,
2013-08-04 15:02:00,75.2,49.9,30.03,SSW,202,3.3,3.6,41,0.00,OVC,SCT,0.00,0.0,WeatherDisplay:10.37,2013-08-04 20:02:00,
2013-08-04 15:07:00,75.2,49.9,30.03,ESE,112,3.1,4.6,41,0.00,OVC,SCT,0.00,0.0,WeatherDisplay:10.37,2013-08-04 20:07:00,
2013-08-04 15:12:00,75.0,49.7,30.03,ENE,68,4.0,4.6,41,0.00,OVC,SCT,0.00,0.0,WeatherDisplay:10.37,2013-08-04 20:12:00,
2013-08-04 15:18:00,74.8,49.6,30.03,ESE,112,4.0,6.0,41,0.00,OVC,SCT,0.00,0.0,WeatherDisplay:10.37,2013-08-04 20:18:00,
2013-08-04 15:22:00,74.7,50.0,30.03,East,90,3.8,4.6,42,0.00,OVC,SCT,0.00,0.0,WeatherDisplay:10.37,2013-08-04 20:22:00,
2013-08-04 15:28:00,74.5,49.9,30.00,South,180,3.3,5.8,42,0.00,OVC,SCT,0.00,0.0,WeatherDisplay:10.37,2013-08-04 20:28:00,
2013-08-04 15:32:00,74.5,49.9,30.00,ESE,112,4.7,6.9,42,0.00,OVC,SCT,0.00,0.0,WeatherDisplay:10.37,2013-08-04 20:32:00,
2013-08-04 15:38:00,74.5,50.5,30.00,ENE,68,4.0,6.0,43,0.00,OVC,SCT,0.00,0.0,WeatherDisplay:10.37,2013-08-04 20:38:00,
2013-08-04 15:43:00,74.7,50.7,30.00,ESE,112,4.7,5.8,43,0.00,OVC,SCT,0.00,100.0,WeatherDisplay:10.37,2013-08-04 20:43:00,
2013-08-04 15:48:00,75.0,50.4,30.00,NE,45,4.0,6.9,42,0.00,OVC,SCT,0.00,100.0,WeatherDisplay:10.37,2013-08-04 20:48:00,
2013-08-04 15:53:00,75.2,49.9,30.00,ESE,112,6.2,8.1,41,0.00,OVC,SCT,0.00,100.0,WeatherDisplay:10.37,2013-08-04 20:53:00,
2013-08-04 15:58:00,75.6,50.2,30.00,ENE,68,5.4,8.1,41,0.00,OVC,SCT,0.00,200.0,WeatherDisplay:10.37,2013-08-04 20:58:00,
2013-08-04 16:03:00,75.7,51.0,30.00,ESE,112,4.9,5.8,42,0.00,OVC,SCT,0.00,200.0,WeatherDisplay:10.37,2013-08-04 21:03:00,
2013-08-04 16:09:00,76.6,51.8,30.00,East,90,5.4,8.1,42,0.00,OVC,SCT,0.00,200.0,WeatherDisplay:10.37,2013-08-04 21:09:00,
2013-08-04 16:14:00,77.0,51.5,30.00,ESE,112,4.5,4.6,41,0.00,OVC,SCT,0.00,200.0,WeatherDisplay:10.37,2013-08-04 21:14:00,
2013-08-04 16:19:00,77.4,51.8,30.00,SSW,202,4.5,5.8,41,0.00,OVC,SCT,0.00,200.0,WeatherDisplay:10.37,2013-08-04 21:19:00,
2013-08-04 16:24:00,77.7,50.8,30.00,SSE,158,5.6,7.4,39,0.00,OVC,SCT,0.00,200.0,WeatherDisplay:10.37,2013-08-04 21:24:00,
2013-08-04 16:29:00,77.4,50.5,29.97,ESE,112,6.2,9.2,39,0.00,OVC,SCT,0.00,200.0,WeatherDisplay:10.37,2013-08-04 21:29:00,
2013-08-04 16:34:00,77.2,51.0,29.97,ESE,112,5.4,8.1,40,0.00,OVC,SCT,0.00,200.0,WeatherDisplay:10.37,2013-08-04 21:34:00,
2013-08-04 16:39:00,77.2,51.0,29.97,ESE,112,5.4,6.0,40,0.00,OVC,SCT,0.00,100.0,WeatherDisplay:10.37,2013-08-04 21:39:00,
2013-08-04 16:44:00,77.4,51.8,29.97,SSW,202,5.4,8.1,41,0.00,OVC,SCT,0.00,100.0,WeatherDisplay:10.37,2013-08-04 21:44:00,
2013-08-04 16:49:00,77.5,52.0,29.97,East,90,6.9,9.2,41,0.00,OVC,SCT,0.00,100.0,WeatherDisplay:10.37,2013-08-04 21:49:00,
2013-08-04 16:54:00,77.5,52.0,29.97,East,90,6.0,9.2,41,0.00,OVC,SCT,0.00,0.0,WeatherDisplay:10.37,2013-08-04 21:54:00,
2013-08-04 16:59:00,77.0,51.5,29.94,SSW,202,4.3,9.2,41,0.00,OVC,SCT,0.00,100.0,WeatherDisplay:10.37,2013-08-04 21:59:00,
2013-08-04 17:04:00,77.4,52.5,29.94,SSE,158,6.0,10.7,42,0.00,OVC,SCT,0.00,100.0,WeatherDisplay:10.37,2013-08-04 22:04:00,
2013-08-04 17:09:00,77.0,52.1,29.94,ENE,68,6.7,9.4,42,0.00,OVC,SCT,0.00,100.0,WeatherDisplay:10.37,2013-08-04 22:09:00,
2013-08-04 17:14:00,77.2,52.3,29.94,SSE,158,6.4,10.2,42,0.00,OVC,SCT,0.00,100.0,WeatherDisplay:10.37,2013-08-04 22:14:00,
2013-08-04 17:20:00,77.5,53.3,29.94,SW,225,4.3,6.9,43,0.00,OVC,SCT,0.00,100.0,WeatherDisplay:10.37,2013-08-04 22:20:00,
2013-08-04 17:24:00,77.5,52.6,29.94,SW,225,5.4,8.1,42,0.00,OVC,SCT,0.00,100.0,WeatherDisplay:10.37,2013-08-04 22:24:00,
2013-08-04 17:30:00,77.4,52.5,29.97,WSW,248,6.4,10.4,42,0.00,OVC,SCT,0.00,0.0,WeatherDisplay:10.37,2013-08-04 22:30:00,
2013-08-04 17:35:00,77.7,52.8,29.97,ESE,112,5.4,5.8,42,0.00,OVC,SCT,0.00,0.0,WeatherDisplay:10.37,2013-08-04 22:35:00,
2013-08-04 17:40:00,77.5,52.6,29.97,East,90,4.5,6.0,42,0.00,OVC,SCT,0.00,0.0,WeatherDisplay:10.37,2013-08-04 22:40:00,
2013-08-04 17:45:00,77.5,52.6,29.97,SE,138,5.0,10.0,42,0.00,OVC,SCT,0.00,0.0,WeatherDisplay:10.37,2013-08-04 22:45:00,
2013-08-04 17:50:00,77.5,52.6,29.97,SSW,202,4.5,6.4,42,0.00,OVC,SCT,0.00,0.0,WeatherDisplay:10.37,2013-08-04 22:50:00,
2013-08-04 17:54:00,77.4,53.1,29.97,ESE,112,4.5,6.9,43,0.00,OVC,SCT,0.00,0.0,WeatherDisplay:10.37,2013-08-04 22:54:00,
2013-08-04 18:00:00,77.2,53.6,29.97,SE,135,3.8,6.2,44,0.00,OVC,SCT,0.00,0.0,WeatherDisplay:10.37,2013-08-04 23:00:00,
2013-08-04 18:05:00,77.4,54.4,29.97,East,90,3.8,5.8,45,0.00,OVC,SCT,0.00,0.0,WeatherDisplay:10.37,2013-08-04 23:05:00,
2013-08-04 18:10:00,77.4,54.4,29.97,ESE,112,3.6,4.9,45,0.00,OVC,SCT,0.00,0.0,WeatherDisplay:10.37,2013-08-04 23:10:00,
2013-08-04 18:15:00,77.2,53.6,29.97,SSE,158,4.3,5.8,44,0.00,OVC,SCT,0.00,0.0,WeatherDisplay:10.37,2013-08-04 23:15:00,
2013-08-04 18:21:00,77.2,53.6,29.97,SE,135,5.9,6.9,44,0.00,OVC,SCT,0.00,0.0,WeatherDisplay:10.37,2013-08-04 23:21:00,
2013-08-04 18:26:00,77.4,54.4,29.97,SSE,158,3.1,3.5,45,0.00,OVC,SCT,0.00,0.0,WeatherDisplay:10.37,2013-08-04 23:26:00,
2013-08-04 18:31:00,77.2,54.2,29.97,SE,135,5.4,8.1,45,0.00,OVC,SCT,0.00,0.0,WeatherDisplay:10.37,2013-08-04 23:31:00,
2013-08-04 18:36:00,77.2,54.8,29.97,ESE,112,3.3,4.6,46,0.00,OVC,SCT,0.00,0.0,WeatherDisplay:10.37,2013-08-04 23:36:00,
2013-08-04 18:42:00,77.2,54.8,29.97,ESE,112,2.9,4.6,46,0.00,OVC,SCT,0.00,0.0,WeatherDisplay:10.37,2013-08-04 23:42:00,
2013-08-04 18:47:00,76.8,54.5,29.97,SSE,158,4.3,5.8,46,0.00,OVC,SCT,0.00,0.0,WeatherDisplay:10.37,2013-08-04 23:47:00,
2013-08-04 18:52:00,76.5,54.1,29.97,ESE,112,3.1,5.8,46,0.00,OVC,SCT,0.00,0.0,WeatherDisplay:10.37,2013-08-04 23:52:00,
2013-08-04 18:57:00,75.9,54.2,29.97,East,90,3.1,5.8,47,0.00,OVC,SCT,0.00,0.0,WeatherDisplay:10.37,2013-08-04 23:57:00,
2013-08-04 19:01:00,75.6,55.1,29.97,ENE,68,2.9,5.8,49,0.00,BKN,SCT,0.00,0.0,WeatherDisplay:10.37,2013-08-05 00:01:00,
2013-08-04 19:07:00,75.6,55.6,29.97,ENE,68,2.4,3.5,50,0.00,BKN,SCT,0.00,0.0,WeatherDisplay:10.37,2013-08-05 00:07:00,
2013-08-04 19:12:00,75.2,55.3,29.97,ESE,112,2.9,5.8,50,0.00,BKN,SCT,0.00,0.0,WeatherDisplay:10.37,2013-08-05 00:12:00,
2013-08-04 19:17:00,75.2,55.3,29.97,ESE,112,3.3,9.2,50,0.00,BKN,SCT,0.00,0.0,WeatherDisplay:10.37,2013-08-05 00:17:00,
2013-08-04 19:22:00,75.0,55.1,29.97,SSE,158,4.9,8.1,50,0.00,BKN,SCT,0.00,0.0,WeatherDisplay:10.37,2013-08-05 00:22:00,
2013-08-04 19:27:00,74.8,55.5,29.97,ESE,112,2.2,4.6,51,0.00,BKN,SCT,0.00,0.0,WeatherDisplay:10.37,2013-08-05 00:27:00,
2013-08-04 19:32:00,74.8,55.5,29.97,ESE,112,3.6,6.9,51,0.00,BKN,SCT,0.00,0.0,WeatherDisplay:10.37,2013-08-05 00:32:00,
2013-08-04 19:37:00,74.7,55.3,29.97,ESE,112,4.5,5.8,51,0.00,BKN,SCT,0.00,0.0,WeatherDisplay:10.37,2013-08-05 00:37:00,
2013-08-04 19:42:00,74.5,55.2,29.97,ESE,112,3.1,4.9,51,0.00,BKN,SCT,0.00,0.0,WeatherDisplay:10.37,2013-08-05 00:42:00,
2013-08-04 19:48:00,74.3,55.0,29.94,ENE,68,4.0,6.9,51,0.00,BKN,SCT,0.00,0.0,WeatherDisplay:10.37,2013-08-05 00:48:00,
2013-08-04 19:53:00,74.1,55.4,29.94,West,270,4.7,6.2,52,0.00,BKN,SCT,0.00,0.0,WeatherDisplay:10.37,2013-08-05 00:53:00,
2013-08-04 19:58:00,73.9,56.2,29.97,SSW,202,3.1,9.8,54,0.00,BKN,SCT,0.00,0.0,WeatherDisplay:10.37,2013-08-05 00:58:00,
2013-08-04 20:03:00,73.8,56.6,29.97,ESE,112,3.3,8.1,55,0.00,BKN,SCT,0.00,0.0,WeatherDisplay:10.37,2013-08-05 01:03:00,
2013-08-04 20:08:00,73.6,56.4,29.97,SSE,158,3.6,4.6,55,0.00,BKN,SCT,0.00,0.0,WeatherDisplay:10.37,2013-08-05 01:08:00,
2013-08-04 20:13:00,73.4,57.2,29.97,East,90,2.9,3.8,57,0.00,BKN,SCT,0.00,0.0,WeatherDisplay:10.37,2013-08-05 01:13:00,
2013-08-04 20:18:00,73.2,57.6,29.97,SSE,158,3.3,6.2,58,0.00,BKN,SCT,0.00,0.0,WeatherDisplay:10.37,2013-08-05 01:18:00,
2013-08-04 20:23:00,72.9,57.7,29.97,SSE,158,4.3,6.4,59,0.00,BKN,SCT,0.00,0.0,WeatherDisplay:10.37,2013-08-05 01:23:00,
2013-08-04 20:28:00,72.7,58.0,29.97,SSE,158,4.3,5.8,60,0.00,BKN,SCT,0.00,0.0,WeatherDisplay:10.37,2013-08-05 01:28:00,
2013-08-04 20:34:00,72.5,58.7,29.97,SSW,202,3.3,5.8,62,0.00,BKN,SCT,0.00,0.0,WeatherDisplay:10.37,2013-08-05 01:34:00,
2013-08-04 20:39:00,72.3,58.6,29.97,SSW,202,2.6,3.5,62,0.00,BKN,SCT,0.00,0.0,WeatherDisplay:10.37,2013-08-05 01:39:00,
2013-08-04 20:44:00,72.0,59.1,29.97,South,180,3.3,5.8,64,0.00,BKN,SCT,0.00,0.0,WeatherDisplay:10.37,2013-08-05 01:44:00,
2013-08-04 20:49:00,72.0,58.7,29.97,ESE,112,3.3,5.8,63,0.00,BKN,SCT,0.00,0.0,WeatherDisplay:10.37,2013-08-05 01:49:00,
2013-08-04 20:54:00,71.8,59.4,29.97,SSW,202,2.4,4.0,65,0.00,BKN,SCT,0.00,0.0,WeatherDisplay:10.37,2013-08-05 01:54:00,
2013-08-04 20:59:00,71.8,59.4,29.97,SSW,202,2.9,5.4,65,0.00,BKN,SCT,0.00,0.0,WeatherDisplay:10.37,2013-08-05 01:59:00,
2013-08-04 21:04:00,71.6,59.2,29.97,SSE,158,3.3,4.6,65,0.00,BKN,SCT,0.00,0.0,WeatherDisplay:10.37,2013-08-05 02:04:00,
2013-08-04 21:09:00,71.4,59.9,29.97,WSW,248,2.9,4.6,67,0.00,BKN,SCT,0.00,0.0,WeatherDisplay:10.37,2013-08-05 02:09:00,
2013-08-04 21:14:00,71.4,60.3,29.97,SSE,158,3.1,5.8,68,0.00,BKN,SCT,0.00,0.0,WeatherDisplay:10.37,2013-08-05 02:14:00,
2013-08-04 21:19:00,71.4,60.3,29.97,SSW,202,4.3,5.8,68,0.00,BKN,SCT,0.00,0.0,WeatherDisplay:10.37,2013-08-05 02:19:00,
2013-08-04 21:25:00,71.2,60.5,29.97,SSW,202,3.8,4.6,69,0.00,BKN,SCT,0.00,0.0,WeatherDisplay:10.37,2013-08-05 02:25:00,
2013-08-04 21:30:00,71.2,60.5,29.97,SE,135,2.4,3.8,69,0.00,BKN,SCT,0.00,0.0,WeatherDisplay:10.37,2013-08-05 02:30:00,
2013-08-04 21:35:00,71.1,60.4,29.97,SSE,158,3.3,5.8,69,0.00,BKN,SCT,0.00,0.0,WeatherDisplay:10.37,2013-08-05 02:35:00,
2013-08-04 21:40:00,71.2,61.0,29.97,SSW,202,2.6,3.5,70,0.00,BKN,SCT,0.00,0.0,WeatherDisplay:10.37,2013-08-05 02:40:00,
2013-08-04 21:45:00,71.2,61.0,29.97,ESE,112,4.7,6.9,70,0.00,BKN,SCT,0.00,0.0,WeatherDisplay:10.37,2013-08-05 02:45:00,
2013-08-04 21:50:00,71.2,60.5,29.97,South,180,4.0,5.8,69,0.00,BKN,SCT,0.00,0.0,WeatherDisplay:10.37,2013-08-05 02:50:00,
2013-08-04 21:55:00,71.2,60.5,29.97,SSE,158,3.8,4.6,69,0.00,BKN,SCT,0.00,0.0,WeatherDisplay:10.37,2013-08-05 02:55:00,
2013-08-04 22:00:00,71.2,60.5,29.97,SSE,158,2.6,3.5,69,0.00,BKN,SCT,0.00,0.0,WeatherDisplay:10.37,2013-08-05 03:00:00,
2013-08-04 22:05:00,71.2,61.0,29.97,SSW,202,2.6,3.5,70,0.00,BKN,SCT,0.00,0.0,WeatherDisplay:10.37,2013-08-05 03:05:00,
2013-08-04 22:11:00,71.2,61.0,29.97,SW,225,2.9,3.5,70,0.00,BKN,SCT,0.00,0.0,WeatherDisplay:10.37,2013-08-05 03:11:00,
2013-08-04 22:16:00,71.2,61.0,30.00,South,180,2.4,3.5,70,0.00,BKN,SCT,0.00,0.0,WeatherDisplay:10.37,2013-08-05 03:16:00,
2013-08-04 22:21:00,71.2,61.0,30.00,South,180,2.9,3.5,70,0.00,BKN,SCT,0.00,0.0,WeatherDisplay:10.37,2013-08-05 03:21:00,
2013-08-04 22:27:00,71.1,60.8,30.00,South,180,3.1,3.8,70,0.00,BKN,SCT,0.00,0.0,WeatherDisplay:10.37,2013-08-05 03:27:00,
2013-08-04 22:32:00,71.1,60.8,30.00,SSE,158,3.6,5.8,70,0.00,BKN,SCT,0.00,0.0,WeatherDisplay:10.37,2013-08-05 03:32:00,
2013-08-04 22:37:00,71.1,60.8,30.00,SSE,158,2.0,2.9,70,0.00,BKN,SCT,0.00,0.0,WeatherDisplay:10.37,2013-08-05 03:37:00,
2013-08-04 22:42:00,71.1,60.8,30.00,South,180,2.4,3.5,70,0.00,BKN,SCT,0.00,0.0,WeatherDisplay:10.37,2013-08-05 03:42:00,
2013-08-04 22:47:00,71.1,60.8,30.00,East,90,2.9,4.0,70,0.00,BKN,SCT,0.00,0.0,WeatherDisplay:10.37,2013-08-05 03:47:00,
2013-08-04 22:52:00,70.9,60.6,30.00,East,90,3.6,4.6,70,0.00,BKN,SCT,0.00,0.0,WeatherDisplay:10.37,2013-08-05 03:52:00,
2013-08-04 22:57:00,70.9,60.2,30.00,SSE,158,2.6,3.5,69,0.00,BKN,SCT,0.00,0.0,WeatherDisplay:10.37,2013-08-05 03:57:00,
2013-08-04 23:01:00,70.9,60.2,30.00,SSE,158,3.6,4.6,69,0.00,BKN,SCT,0.00,0.0,WeatherDisplay:10.37,2013-08-05 04:01:00,
2013-08-04 23:02:00,70.9,60.2,30.00,ESE,112,2.4,4.6,69,0.00,BKN,SCT,0.00,0.0,WeatherDisplay:10.37,2013-08-05 04:02:00,
2013-08-04 23:03:00,70.9,60.2,30.00,SSE,158,3.1,4.6,69,0.00,BKN,SCT,0.00,0.0,WeatherDisplay:10.37,2013-08-05 04:03:00,
2013-08-04 23:07:00,70.9,60.2,30.00,ENE,68,2.2,4.6,69,0.00,BKN,SCT,0.00,0.0,WeatherDisplay:10.37,2013-08-05 04:07:00,
2013-08-04 23:13:00,70.9,60.2,29.97,SE,135,2.6,3.5,69,0.00,BKN,SCT,0.00,0.0,WeatherDisplay:10.37,2013-08-05 04:13:00,
2013-08-04 23:18:00,70.9,59.8,29.97,SE,135,2.4,3.5,68,0.00,BKN,SCT,0.00,0.0,WeatherDisplay:10.37,2013-08-05 04:18:00,
2013-08-04 23:23:00,70.7,59.6,29.97,SSE,158,4.3,5.8,68,0.00,BKN,SCT,0.00,0.0,WeatherDisplay:10.37,2013-08-05 04:23:00,
2013-08-04 23:28:00,70.7,59.6,29.97,SSW,202,3.3,4.6,68,0.00,BKN,SCT,0.00,0.0,WeatherDisplay:10.37,2013-08-05 04:28:00,
2013-08-04 23:34:00,70.7,59.6,29.97,ESE,112,2.9,4.6,68,0.00,BKN,SCT,0.00,0.0,WeatherDisplay:10.37,2013-08-05 04:34:00,
2013-08-04 23:39:00,70.7,59.6,29.97,East,90,4.0,5.8,68,0.00,BKN,SCT,0.00,0.0,WeatherDisplay:10.37,2013-08-05 04:39:00,
2013-08-04 23:44:00,70.7,59.6,29.97,ESE,112,2.9,4.6,68,0.00,BKN,SCT,0.00,0.0,WeatherDisplay:10.37,2013-08-05 04:44:00,
2013-08-04 23:49:00,70.5,59.4,29.97,ESE,112,3.3,4.6,68,0.00,BKN,SCT,0.00,0.0,WeatherDisplay:10.37,2013-08-05 04:49:00,
2013-08-04 23:54:00,70.3,59.3,29.97,SSE,158,3.8,6.9,68,0.00,BKN,SCT,0.00,0.0,WeatherDisplay:10.37,2013-08-05 04:54:00,
2013-08-04 23:59:00,70.2,59.5,29.97,ESE,112,2.6,4.6,69,0.00,BKN,SCT,0.00,0.0,WeatherDisplay:10.37,2013-08-05 04:59:00,